Location: Gleizolles
(44.4833°N, 6.7667°E)
Time: 01:06:38
(UTC+00:00)

S-56A Canister/Altair - Pass Details

Date: 25 June 2024
Orbit: 638 x 2488 km, 38.9° (Epoch: 24 July)

Event Time Altitude Azimuth Distance (km) Brightness Sun altitude
Rises 21:42:28 0° 262° (W) 4,277 11.6 -17.4°
Reaches altitude 10° 21:44:59 10° 259° (W) 3,520 11.1 -17.6°
Maximum altitude 21:54:16 67° 180° (S) 2,001 9.3 -18.3°
Drops below altitude 10° 22:07:44 10° 102° (ESE) 4,948 11.3 -19.2°
Sets 22:11:57 0° 100° (E) 6,079 11.8 -19.5°
